Location: Newark
(13.0328°N, 9.6142°E)
Time: 01:42:45
(UTC+00:00)

Envisat - Visible Passes

Search period start: 22 October 2019 00:00
Search period end: 01 November 2019 00:00
Orbit: 764 x 766 km, 98.1° (Epoch: 21 October)

Date Brightness Start Highest point End Pass type
(mag) Time Alt. Az. Time Alt. Az. Time Alt. Az.
22 Oct 3.0 17:47:54 10° SSE 17:52:58 87° WSW 17:58:03 10° NNW visible
23 Oct 5.9 18:52:22 10° SW 18:55:12 15° W 18:58:01 10° WNW visible
24 Oct 4.3 18:13:40 10° S 18:18:26 41° W 18:23:12 10° NNW visible
25 Oct 2.9 17:36:42 10° SSE 17:41:44 69° ENE 17:46:46 10° N visible
26 Oct 5.5 18:40:14 10° SSW 18:43:55 20° W 18:47:37 10° NW visible
27 Oct 3.7 18:02:13 10° S 18:07:11 57° W 18:12:09 10° NNW visible
28 Oct 6.8 04:50:56 10° E 04:52:15 11° E 04:53:34 10° ESE visible
28 Oct 3.1 17:25:37 10° SSE 17:30:30 51° ENE 17:35:24 10° N visible
29 Oct 5.1 18:28:24 10° SSW 18:32:40 27° W 18:36:55 10° NW visible
30 Oct 3.1 17:50:52 10° S 17:55:56 78° WSW 18:00:59 10° NNW visible
31 Oct 3.5 17:14:39 10° SE 17:19:17 37° ENE 17:23:55 10° N visible
31 Oct 6.1 18:55:49 10° SW 18:58:10 13° W 19:00:30 10° WNW visible
